sat.trackr.live / text

‹ back to catalog

ONEWEB-0383

NORAD 49309 · 2021-090AG

PAYLOAD ACTIVE UNKNOWN

§ Identity

Operator
Country
UK
Launch date
2021-10-14
Launch site
VOSTO
Launch vehicle
Mass (kg)
RCS (m²)

Purposes: comms

External: N2YO · Heavens-Above · Gunter

§ Orbital elements

Epoch: 2026-09-19T19:08:10.952736Z

Period
109.55 min
Inclination
87.8900°
Eccentricity
0.0002067
Mean motion
13.14501894 rev/d
Perigee alt
1,204.2 km
Apogee alt
1,207.4 km
Semi-major
7,583.9 km
B*
4.3560e-4
RAAN
270.8320°
Arg perigee
90.5282°
Mean anomaly
269.6085°
Rev number
24,002

§ Raw data

ONEWEB-03831 49309U 21090AG  26262.79734899  .00000174  00000+0  43560-3 0  99932 49309  87.8900 270.8320 0002067  90.5282 269.6085 13.14501894240022

JSON: /api/v1/satellites/49309 · /tle

For live sub-satellite position, see the globe view (requires WebGL).

§ Visibility from observer

Set your observer location to see the next 7 days of passes ≥ 10°. The values pass through the URL so the page stays shareable.

No JS? Fill the form by hand. The geolocation button needs JavaScript.